Tracking 31028 objects as of 17-Jul-2025
HD Live streaming from Space Station
objects crossing your sky now

STARLINK-5681

Track STARLINK-5681 now!
10-day predictions
STARLINK-5681 is classified as:


NORAD ID: 55469
Int'l Code: 2023-015W
Perigee: 565.8 km
Apogee: 566.7 km
Inclination: 43.0 °
Period: 95.8 minutes
Semi major axis: 6937 km
RCS: Unknown
Launch date: February 2, 2023
Source: United States (US)
Launch site: AIR FORCE EASTERN TEST RANGE (AFETR)
Your satellite tracking list
Your tracking list is empty




NASA's NSSDC Master Catalog

Two Line Element Set (TLE):
1 55469U 23015W   25197.61480313  .00000251  00000-0  33624-4 0  9990
2 55469  43.0027 168.6321 0000621 281.3885  78.6888 15.02534066135240
Source of the keplerian elements: AFSPC